FLOCK 2E-5

Last updated on Wed Aug 15 2018 00:15:06 GMT+0000 (Coordinated Universal Time)

1 41564U 98067JN 18225.91639610 .05544764 12294-4 88851-3 0 9993 2 41564 51.6050 355.7323 0014258 321.8055 38.1957 16.32532786126499

Satellite not in orbit